Location: *
(34.8620°S, 39.3380°E)
Time: 08:07:10
(UTC+00:00)

SAOCOM 1-B - Pass Details

Date: 07 June 2022
Orbit: 621 x 623 km, 97.9° (Epoch: 06 July)

Event Time Altitude Azimuth Distance (km) Brightness Sun altitude
Rises 14:53:32 0° 10° (N) 2,890 ? -7.4°
Reaches altitude 10° 14:55:43 10° 9° (N) 1,992 ? -7.8°
Maximum altitude 15:00:03 78° 282° (WNW) 647 ? -8.7°
Drops below altitude 10° 15:04:28 10° 195° (SSW) 2,022 ? -9.5°
Sets 15:06:41 0° 193° (SSW) 2,937 ? -9.9°
